Location: Colconda
(10.2500°N, 61.4333°W)
Time: 01:59:13
(UTC+00:00)

Daily predictions for brighter satellites

Satellite Brightness Start Highest point End
(mag) Time Altitude Azimuth Time Altitude Azimuth Time Altitude Azimuth
ATLAS 3B CENTAUR R/B 2.5 00:01:02 10° WNW 00:05:18 85° NNE 00:08:26 42° ESE
Cosmos 2278 Rocket 2.1 00:05:16 10° NNW 00:10:56 87° WSW 00:12:14 56° SSE
Cosmos 1726 Rocket 3.9 00:10:39 10° N 00:14:13 58° N 00:14:13 58° N
ARIANE R/B 4.1 00:11:11 10° W 00:15:04 61° S 00:16:09 53° SE
ERS-1 Rocket 3.9 00:17:02 36° NE 00:17:02 36° NE 00:20:24 10° N
CZ-2D R/B 4.1 00:18:14 47° W 00:18:14 47° W 00:21:44 10° NNW
Cosmos 1602 Rocket 4.4 00:19:41 44° N 00:19:41 44° N 00:22:44 10° N
Tiangong 1 4.0 00:17:05 10° W 00:17:59 14° WSW 00:17:59 14° WSW
Cosmos 2285 Rocket 4.4 00:20:13 10° N 00:25:22 45° NE 00:25:22 45° NE
Centaur D AC-28 4.0 00:24:51 10° NNW 00:26:49 13° NNE 00:26:50 13° NNE
OTV 4 3.9 00:25:59 10° NNW 00:26:01 10° NNW 00:26:01 10° NNW
Cosmos 2058 Rocket 4.4 00:26:55 10° N 00:29:25 34° N 00:29:25 34° N
Yuri Rocket 4.4 00:22:46 10° WNW 00:31:42 59° SSW 00:32:34 56° S
Cosmos 1464 Rocket 3.9 00:28:57 10° N 00:34:38 75° NNE 00:34:38 75° NNE
COSMOS 2455 4.2 00:33:27 10° SW 00:38:53 36° WNW 00:44:20 10° N
H-2A R/B 4.4 00:45:17 18° N 00:45:17 18° N 00:46:26 10° N
ALOS 3.7 00:43:44 32° W 00:43:44 32° W 00:47:46 10° NW
Milstar 3 Cent rocket 3.7 00:42:17 10° NW 00:47:32 26° NNE 00:47:32 26° NNE
BLOCK DM-SL R/B 4.2 00:39:47 10° W 00:50:17 32° SW 00:50:17 32° SW
Resurs 1-4 Rocket 4.3 06:56:36 10° N 06:57:56 18° N 06:57:56 18° N
SL-16 R/B 4.2 07:02:22 10° N 07:03:59 20° N 07:03:59 20° N
NOSS 3-1 (A) 4.0 07:17:15 45° ESE 07:17:15 45° ESE 07:22:30 10° NE
Cosmos 2322 Rocket 4.4 07:14:44 10° NNW 07:15:23 13° NNW 07:15:23 13° NNW
Cosmos 2154 Rocket 4.0 07:22:14 77° ENE 07:22:14 77° ENE 07:28:23 10° N
SL-16 R/B 2.6 07:37:34 59° NW 07:37:34 59° NW 07:42:46 10° NNW
Cosmos 2227 Rocket 2.5 07:35:53 54° SE 07:36:37 59° ESE 07:42:08 10° NNE
Sich 1 Rocket 4.5 07:36:57 46° E 07:36:57 46° E 07:40:57 10° NNE
CZ-4B R/B 4.1 07:36:09 10° NNE 07:38:57 41° NNE 07:38:57 41° NNE
ATLAS 2AS CENTAUR R/B 4.5 07:35:50 12° SSE 07:40:43 26° ESE 07:46:36 10° NE
Lacrosse 5 rocket 3.6 07:37:55 10° N 07:41:52 28° ENE 07:45:50 10° ESE
H-2A R/B 4.5 07:30:45 10° WNW 07:42:15 24° N 07:45:54 10° NE
Cosmos 1125 Rocket 4.1 07:41:25 42° SE 07:42:36 51° ESE 07:47:40 10° NNE
Atlas Centaur 2 3.5 07:46:24 32° S 07:46:24 32° S 07:50:09 10° SE
Cosmos 1356 Rocket 4.3 07:46:48 43° ESE 07:47:11 44° E 07:51:07 10° NNE
CZ-2D R/B 4.4 07:44:58 10° NW 07:45:18 11° NW 07:45:18 11° NW
Cosmos 2360 Rocket 2.6 07:45:34 10° N 07:51:07 60° ENE 07:56:40 10° SSE
Cosmos 389 Rocket 3.8 07:52:11 10° NNE 07:55:40 40° E 07:56:50 30° SE
Meteor 1-26 Rocket 4.0 07:51:10 10° NNW 07:56:36 63° W 07:56:54 62° WSW
CZ-4B R/B 3.6 07:53:29 10° N 07:58:26 43° WNW 07:58:26 43° WNW
Cosmos 1908 Rocket 3.8 07:59:09 48° SSE 08:00:17 70° E 08:04:40 10° N
GPS 2-04 Rocket1 4.2 08:01:51 24° N 08:01:51 24° N 08:03:56 10° NNE
Cosmos 1340 Rocket 3.2 08:01:58 53° NNW 08:01:58 53° NNW 08:05:12 10° N
Feng Yun 1-1 Rocket 4.4 07:56:48 10° NNE 08:02:40 78° ESE 08:06:20 24° S
GPS 2-17 Rocket1 3.2 08:05:25 59° SSW 08:05:25 59° SSW 08:10:11 10° ESE
Cosmos 2322 3.7 08:00:36 10° NNW 08:06:19 87° ENE 08:12:01 10° SSE
Meteor 2-10 Rocket 4.2 08:04:21 10° N 08:09:24 54° E 08:14:39 10° SSE
Cosmos 2297 Rocket 2.2 08:07:07 32° S 08:09:49 84° ESE 08:15:29 10° NNE
MOZ.5/SAFIR/RUBIN 5/SL-8 4.0 08:05:53 10° SSE 08:10:30 69° ENE 08:15:08 10° N
Ariane H10-3 4.2 08:13:30 15° S 08:14:46 16° SSE 08:19:45 10° ESE
Meteor 2-13 Rocket 4.3 08:10:49 22° S 08:14:55 81° W 08:20:58 10° N
Okean O Rocket 3.9 08:14:41 10° NW 08:14:57 11° NW 08:14:57 11° NW
Cosmos 2082 4.0 08:18:00 37° WSW 08:19:41 48° WNW 08:25:10 10° N
Cosmos 2218 Rocket 3.9 08:14:22 11° S 08:20:21 88° E 08:26:29 10° N
NOSS 3-1 (C) 4.3 08:20:50 26° WNW 08:21:45 27° WNW 08:26:38 10° N
ADEOS II 2.2 08:17:40 10° NNE 08:22:54 79° E 08:27:58 11° S
Cosmos 1674 Rocket 3.6 08:20:40 10° N 08:24:59 80° E 08:29:20 10° S
GP-B 3.1 08:23:44 10° N 08:28:06 61° W 08:30:54 21° SSW
Milstar 3 4.5 08:09:52 10° WNW 08:29:12 51° SW 08:39:11 10° SE
Cosmos 1825 2.0 08:30:16 19° S 08:32:55 86° W 08:36:43 10° N
Cosmos 1408 2.4 08:30:31 20° S 08:32:56 88° W 08:36:35 10° N
COSMOS 2428 2.9 08:31:01 10° N 08:36:40 73° ENE 08:42:18 10° SSE
SWIFT 3.3 08:37:05 23° SSW 08:39:03 36° SSE 08:42:56 10° E
PSLV R/B 4.3 08:39:34 10° NNW 08:43:27 32° WNW 08:45:30 21° SW
Okean-O 3.8 08:40:07 10° NNW 08:43:39 24° WNW 08:44:56 21° WSW
Delta 198 4.0 08:39:29 14° WNW 08:44:00 72° SSW 08:50:11 10° ESE
GENESIS II 4.2 08:41:13 10° NNW 08:45:09 59° WSW 08:49:00 10° SSE
ADEOS Rocket 2.8 08:41:47 10° NNE 08:47:30 84° ESE 08:52:58 10° S
GPS 2-14 Rocket1 3.8 08:43:59 10° WNW 08:47:47 43° NNE 08:51:41 10° E
GPS 2-18 Rocket1 3.1 08:49:30 15° WNW 08:52:43 69° SSW 08:56:44 10° ESE
ISS -0.3 08:50:48 10° N 08:53:17 20° NE 08:55:45 10° ESE
Cosmos 292 Rocket 3.7 08:49:08 10° NNW 08:53:48 59° WSW 08:58:28 10° S
Cosmos 372 Rocket 4.4 08:52:59 12° SW 08:57:26 42° WNW 09:02:21 10° N
Cosmos 2237 4.2 08:53:26 10° NNW 08:59:03 62° WSW 09:04:41 10° S
Ariane 42L Rocket 4.0 08:57:17 10° SSW 08:59:32 20° SSE 09:04:13 10° ESE
Radarsat Rocket 4.2 08:54:15 10° N 09:00:22 76° WNW 09:07:16 10° SSW
CZ-4 R/B 4.2 08:59:48 10° ENE 09:02:22 17° E 09:04:59 10° SE
Cosmos 921 Rocket 4.2 08:58:21 10° S 09:02:33 44° E 09:06:39 10° NNE
Meteor 1-27 Rocket 3.8 08:58:30 10° N 09:04:26 83° W 09:10:20 10° S
Okean 2 Rocket 3.9 09:03:21 10° SSW 09:07:15 31° W 09:11:12 10° NNW
Ariane Rocket 3.1 09:02:24 10° N 09:07:23 58° WNW 09:12:22 10° SSW
deb Ariane 3.1 09:06:17 12° WSW 09:08:46 42° S 09:12:12 10° E
ATLAS CENTAUR R/B 1.3 09:04:57 10° NNW 09:09:09 85° ENE 09:12:59 10° SSE
Meteor 2-6 Rocket 4.5 09:04:00 10° NNW 09:09:15 46° W 09:14:42 10° SSW
NOAA 6 4.3 09:06:14 10° N 09:11:12 48° WNW 09:16:09 10° SSW
Cosmos 2219 Rocket 2.5 09:08:06 10° N 09:13:39 72° ENE 09:19:12 10° SSE
CZ-3 Stage 3 4.2 08:41:38 14° SW 09:18:34 84° SSE 09:24:52 10° ENE
Lacrosse 5 rocket 3.0 09:17:51 10° WNW 09:20:56 18° WSW 09:24:02 10° SSW
Centaur D-1AR AC-48 3.2 09:22:26 10° WNW 09:28:01 36° N 09:31:25 10° ENE
